Location: Kuffner-Sternwarte
(48.2130°N, 16.2960°E)
Time: 03:09:17
(UTC+01:00)

N. Korean satellite - Pass Details

Date: 24 February 2019
Orbit: 456 x 510 km, 97.2° (Epoch: 22 March)

Event Time Altitude Azimuth Distance (km) Brightness Sun altitude
Rises 05:27:55 0° 24° (NNE) 2,501 10.5 -13.8°
Reaches altitude 10° 05:30:17 10° 39° (NE) 1,614 9.8 -13.4°
Maximum altitude 05:33:06 23° 94° (E) 1,016 9.2 -12.9°
Drops below altitude 10° 05:35:54 10° 149° (SSE) 1,593 9.6 -12.5°
Sets 05:38:12 0° 164° (SSE) 2,460 10.4 -12.1°
